This is the latest recevied weather packets stored in our database for station/object K1KOF. If no packets are shown the sender has not sent any weather packets the latest 10 day(s).
| Time | Temp. | Humidity | Pressure | Rain* | Wind** | Luminosity | Snow |
|---|---|---|---|---|---|---|---|
| 1777841280 | 21.11° C | 43% | 1027.1 hPa | 0 mm | - | 548 W/m² | - |
| 1777840977 | 21.11° C | 43% | 1027.2 hPa | 0 mm | - | 566 W/m² | - |
| 1777840674 | 21.67° C | 44% | 1027.3 hPa | 0 mm | - | 486 W/m² | - |
| 1777840372 | 21.11° C | 43% | 1027.3 hPa | 0 mm | - | 533 W/m² | - |
| 1777840068 | 21.11° C | 43% | 1027.5 hPa | 0 mm | - | 629 W/m² | - |
| 1777839767 | 21.11° C | 43% | 1027.4 hPa | 0 mm | - | 624 W/m² | - |
| 1777839464 | 21.67° C | 42% | 1027.5 hPa | 0 mm | - | 647 W/m² | - |
| 1777839161 | 22.22° C | 42% | 1027.5 hPa | 0 mm | - | 590 W/m² | - |
| 1777838858 | 21.67° C | 42% | 1027.7 hPa | 0 mm | - | 641 W/m² | - |
| 1777838554 | 21.11° C | 41% | 1027.9 hPa | 0 mm | - | 416 W/m² | - |
| 1777838251 | 20.56° C | 43% | 1028 hPa | 0 mm | - | 369 W/m² | - |
| 1777837948 | 21.67° C | 44% | 1028 hPa | 0 mm | - | 548 W/m² | - |
| 1777837646 | 21.67° C | 44% | 1028.3 hPa | 0 mm | - | 674 W/m² | - |
| 1777837341 | 21.11° C | 43% | 1028.4 hPa | 0 mm | - | 705 W/m² | - |
| 1777837038 | 21.11° C | 44% | 1028.4 hPa | 0 mm | - | 573 W/m² | - |
| 1777836734 | 21.11° C | 45% | 1028.5 hPa | 0 mm | - | 667 W/m² | - |
| 1777836430 | 20.56° C | 43% | 1028.7 hPa | 0 mm | - | 691 W/m² | - |
| 1777836125 | 21.67° C | 43% | 1028.8 hPa | 0 mm | - | 690 W/m² | - |
| 1777835822 | 21.11° C | 43% | 1028.8 hPa | 0 mm | - | 683 W/m² | - |
| 1777835519 | 20.56° C | 45% | 1028.8 hPa | 0 mm | - | 734 W/m² | - |
| 1777835216 | 20.56° C | 45% | 1029 hPa | 0 mm | - | 724 W/m² | - |
| 1777834912 | 21.11° C | 45% | 1029.1 hPa | 0 mm | - | 717 W/m² | - |
| 1777834609 | 20° C | 46% | 1029.3 hPa | 0 mm | - | 751 W/m² | - |
| 1777834304 | 19.44° C | 46% | 1029.4 hPa | 0 mm | - | 651 W/m² | - |
| 1777834000 | 19.44° C | 48% | 1029.5 hPa | 0 mm | - | 559 W/m² | - |
* Rain latest hour (hover to see other rain measurements)
** Current wind speed in m/s (hover to see current wind gust speed)